Location: Mascot Post Office (historical)
(40.2645°N, 99.5462°W)
Time: 17:19:11
(UTC+00:00)

NOSS 0 Rocket - Pass Details

Date: 14 July 2020
Orbit: 934 x 955 km, 70.0° (Epoch: 05 August)

Event Time Altitude Azimuth Distance (km) Brightness Sun altitude
Rises 03:35:21 0° 213° (SSW) 3,577 6.8 -14.1°
Reaches altitude 10° 03:37:54 10° 217° (SW) 2,638 6.2 -14.5°
Maximum altitude 03:43:56 62° 297° (WNW) 1,050 4.4 -15.3°
Drops below altitude 10° 03:50:04 10° 19° (NNE) 2,665 6.7 -16.0°
Sets 03:52:39 0° 22° (NNE) 3,616 7.3 -16.4°
